| time (UTC) | temp F | wind direction | speed MPH | gust MPH | rain 1hr in | rain 24hr in | rain mn in | humidity % | barometer mb |
| 20260903105005 | 61 | 170 | 5.0 | 10.0 | 0.01 | 0.28 | 0.12 | 94 | 1006.8 |
| 20260903104005 | 61 | 185 | 5.0 | 12.0 | 0.01 | 0.28 | 0.12 | 94 | 1006.9 |
| 20260903103007 | 61 | 159 | 5.0 | 12.0 | 0.01 | 0.28 | 0.12 | 94 | 1007.2 |
| 20260903102005 | 61 | 154 | 5.0 | 12.0 | 0.01 | 0.28 | 0.12 | 94 | 1007.2 |
| 20260903101005 | 61 | 145 | 5.0 | 12.0 | 0.02 | 0.28 | 0.12 | 94 | 1007.4 |
| 20260903100007 | 61 | 157 | 3.0 | 12.0 | 0.02 | 0.28 | 0.12 | 94 | 1007.6 |
| 20260903095005 | 61 | 142 | 5.0 | 10.0 | 0.02 | 0.27 | 0.11 | 94 | 1007.8 |
| 20260903094006 | 61 | 168 | 5.0 | 12.0 | 0.02 | 0.27 | 0.11 | 94 | 1008.1 |
| 20260903093007 | 61 | 171 | 4.0 | 9.0 | 0.03 | 0.27 | 0.11 | 94 | 1008.2 |
| 20260903092006 | 60 | 168 | 5.0 | 10.0 | 0.04 | 0.27 | 0.11 | 94 | 1008.3 |
| 20260903091005 | 60 | 164 | 3.0 | 10.0 | 0.04 | 0.26 | 0.10 | 94 | 1008.5 |
| 20260903090007 | 60 | 177 | 3.0 | 7.0 | 0.04 | 0.25 | 0.09 | 94 | 1008.6 |
| 20260903085006 | 60 | 181 | 2.0 | 6.0 | 0.03 | 0.24 | 0.09 | 94 | 1008.8 |
| 20260903084005 | 60 | 167 | 5.0 | 12.0 | 0.03 | 0.24 | 0.09 | 94 | 1008.8 |
| 20260903083008 | 60 | 162 | 2.0 | 3.0 | 0.02 | 0.24 | 0.08 | 94 | 1008.8 |
| 20260903082005 | 60 | 166 | 1.0 | 5.0 | 0.02 | 0.23 | 0.07 | 94 | 1008.9 |
| 20260903081006 | 60 | 165 | 2.0 | 7.0 | 0.02 | 0.22 | 0.06 | 94 | 1009.1 |
| 20260903080008 | 60 | 179 | 1.0 | 7.0 | 0.01 | 0.21 | 0.06 | 94 | 1009.2 |
| 20260903075006 | 60 | 176 | 4.0 | 7.0 | 0.02 | 0.21 | 0.06 | 94 | 1009.3 |
| 20260903074006 | 60 | 187 | 2.0 | 3.0 | 0.02 | 0.21 | 0.06 | 94 | 1009.4 |
| 20260903073008 | 60 | 169 | 2.0 | 8.0 | 0.02 | 0.21 | 0.06 | 94 | 1009.4 |
| 20260903072005 | 60 | 179 | 3.0 | 6.0 | 0.01 | 0.20 | 0.05 | 94 | 1009.4 |
| 20260903071005 | 61 | 173 | 2.0 | 7.0 | 0.01 | 0.20 | 0.05 | 94 | 1009.7 |
| 20260903070008 | 61 | 175 | 2.0 | 6.0 | 0.01 | 0.20 | 0.05 | 94 | 1009.7 |
| 20260903065005 | 60 | 172 | 1.0 | 6.0 | 0.01 | 0.20 | 0.04 | 94 | 1009.8 |
| 20260903064006 | 60 | 169 | 2.0 | 5.0 | 0.01 | 0.20 | 0.04 | 94 | 1009.9 |
| 20260903063007 | 60 | 142 | 2.0 | 6.0 | 0.01 | 0.20 | 0.04 | 94 | 1009.9 |
| 20260903062006 | 60 | 169 | 2.0 | 6.0 | 0.01 | 0.20 | 0.04 | 94 | 1010.0 |
| 20260903061005 | 60 | 158 | 2.0 | 7.0 | 0.01 | 0.20 | 0.04 | 94 | 1010.1 |
| 20260903060008 | 60 | 167 | 4.0 | 7.0 | 0.01 | 0.20 | 0.04 | 94 | 1010.1 |
| 20260903055006 | 60 | 176 | 3.0 | 9.0 | 0.00 | 0.19 | 0.03 | 94 | 1010.3 |
| 20260903054008 | 60 | 164 | 4.0 | 7.0 | 0.00 | 0.19 | 0.03 | 94 | 1010.4 |
| 20260903053007 | 60 | 163 | 3.0 | 7.0 | 0.00 | 0.19 | 0.03 | 94 | 1010.4 |
| 20260903052006 | 60 | 172 | 4.0 | 7.0 | 0.00 | 0.19 | 0.03 | 93 | 1010.4 |
| 20260903051005 | 60 | 165 | 3.0 | 6.0 | 0.00 | 0.19 | 0.03 | 93 | 1010.6 |
| 20260903050008 | 60 | 155 | 1.0 | 3.0 | 0.00 | 0.19 | 0.03 | 93 | 1010.8 |
| 20260903045006 | 60 | 177 | 2.0 | 5.0 | 0.00 | 0.19 | 0.03 | 93 | 1010.8 |
| 20260903044005 | 60 | 176 | 1.0 | 5.0 | 0.00 | 0.19 | 0.03 | 93 | 1010.9 |
| 20260903043008 | 60 | 183 | 0.0 | 2.0 | 0.00 | 0.19 | 0.03 | 93 | 1010.9 |
| 20260903042006 | 60 | 184 | 0.0 | 3.0 | 0.00 | 0.19 | 0.03 | 93 | 1011.0 |
| 20260903041007 | 59 | 191 | 1.0 | 5.0 | 0.00 | 0.19 | 0.03 | 93 | 1011.0 |
| 20260903040010 | 59 | 196 | 1.0 | 3.0 | 0.00 | 0.19 | 0.03 | 93 | 1011.2 |
| 20260903035006 | 59 | 162 | 0.0 | 3.0 | 0.00 | 0.19 | 0.03 | 93 | 1011.3 |
| 20260903034006 | 59 | 183 | 0.0 | 2.0 | 0.00 | 0.19 | 0.03 | 93 | 1011.4 |
| 20260903033009 | 59 | 183 | 1.0 | 3.0 | 0.00 | 0.19 | 0.03 | 93 | 1011.4 |
| 20260903032006 | 59 | 183 | 0.0 | 3.0 | 0.00 | 0.19 | 0.03 | 93 | 1011.4 |
| 20260903031006 | 59 | 185 | 0.0 | 0.0 | 0.00 | 0.19 | 0.03 | 93 | 1011.5 |
| 20260903030008 | 59 | 186 | 0.0 | 3.0 | 0.01 | 0.19 | 0.03 | 93 | 1011.5 |
| 20260903025006 | 59 | 189 | 0.0 | 2.0 | 0.01 | 0.19 | 0.03 | 93 | 1011.6 |
| 20260903024006 | 59 | 189 | 0.0 | 3.0 | 0.02 | 0.19 | 0.03 | 93 | 1011.8 |
| 20260903023008 | 59 | 195 | 0.0 | 0.0 | 0.02 | 0.19 | 0.03 | 93 | 1011.8 |
| 20260903022006 | 59 | 219 | 0.0 | 1.0 | 0.02 | 0.19 | 0.03 | 93 | 1011.9 |
| 20260903021006 | 59 | 229 | 0.0 | 1.0 | 0.03 | 0.19 | 0.03 | 93 | 1012.0 |
| 20260903020008 | 59 | 229 | 0.0 | 2.0 | 0.02 | 0.18 | 0.02 | 93 | 1012.1 |
| 20260903015006 | 59 | 229 | 0.0 | 3.0 | 0.02 | 0.18 | 0.02 | 93 | 1012.3 |
| 20260903014006 | 59 | 231 | 1.0 | 5.0 | 0.02 | 0.17 | 0.02 | 93 | 1012.3 |
| 20260903013009 | 59 | 219 | 0.0 | 5.0 | 0.02 | 0.17 | 0.02 | 93 | 1012.5 |
| 20260903012006 | 59 | 181 | 0.0 | 3.0 | 0.02 | 0.17 | 0.02 | 93 | 1012.5 |
| 20260903011005 | 59 | 196 | 0.0 | 3.0 | 0.00 | 0.16 | 0.00 | 93 | 1012.5 |
| 20260903010008 | 59 | 194 | 0.0 | 2.0 | 0.00 | 0.16 | 0.00 | 93 | 1012.5 |
| 20260903005006 | 59 | 197 | 0.0 | 3.0 | 0.00 | 0.16 | 0.00 | 93 | 1012.5 |
| 20260903004006 | 59 | 217 | 0.0 | 3.0 | 0.00 | 0.16 | 0.00 | 93 | 1012.5 |
| 20260903003008 | 59 | 221 | 0.0 | 5.0 | 0.00 | 0.16 | 0.00 | 93 | 1012.6 |
| 20260903002006 | 59 | 231 | 1.0 | 7.0 | 0.00 | 0.16 | 0.00 | 93 | 1012.6 |
| 20260903001006 | 58 | 203 | 0.0 | 2.0 | 0.00 | 0.16 | 0.00 | 93 | 1012.7 |
| 20260903000008 | 58 | 202 | 1.0 | 6.0 | 0.00 | 0.16 | 0.00 | 93 | 1012.8 |
| 20260902235006 | 58 | 220 | 1.0 | 6.0 | 0.00 | 0.16 | 0.00 | 93 | 1012.8 |
| 20260902234006 | 58 | 241 | 1.0 | 6.0 | 0.00 | 0.16 | 0.00 | 93 | 1012.8 |
| 20260902233009 | 59 | 228 | 2.0 | 7.0 | 0.00 | 0.16 | 0.00 | 93 | 1012.9 |
| 20260902232006 | 59 | 224 | 1.0 | 8.0 | 0.00 | 0.16 | 0.00 | 93 | 1013.0 |
| 20260902231006 | 58 | 231 | 2.0 | 12.0 | 0.00 | 0.16 | 0.00 | 93 | 1013.0 |
| 20260902230008 | 58 | 218 | 1.0 | 3.0 | 0.00 | 0.16 | 0.00 | 93 | 1013.0 |
| 20260902225006 | 58 | 220 | 0.0 | 7.0 | 0.00 | 0.16 | 0.00 | 93 | 1013.0 |
| 20260902224006 | 58 | 235 | 3.0 | 7.0 | 0.00 | 0.16 | 0.00 | 93 | 1013.0 |
| 20260902223009 | 58 | 220 | 1.0 | 9.0 | 0.00 | 0.16 | 0.00 | 93 | 1013.0 |
| 20260902222006 | 59 | 227 | 1.0 | 10.0 | 0.00 | 0.16 | 0.00 | 93 | 1013.0 |
| 20260902221006 | 59 | 234 | 1.0 | 5.0 | 0.00 | 0.16 | 0.00 | 93 | 1013.0 |
| 20260902220008 | 59 | 231 | 1.0 | 6.0 | 0.00 | 0.16 | 0.00 | 93 | 1013.0 |
| 20260902215006 | 59 | 218 | 0.0 | 5.0 | 0.00 | 0.16 | 0.16 | 93 | 1013.0 |
| 20260902214005 | 59 | 224 | 0.0 | 10.0 | 0.00 | 0.17 | 0.16 | 93 | 1012.9 |
| 20260902213008 | 59 | 230 | 0.0 | 10.0 | 0.00 | 0.17 | 0.16 | 93 | 1012.8 |
| 20260902212006 | 59 | 237 | 1.0 | 8.0 | 0.00 | 0.17 | 0.16 | 93 | 1012.8 |
| 20260902211006 | 58 | 234 | 0.0 | 7.0 | 0.00 | 0.17 | 0.16 | 93 | 1012.9 |
| 20260902210008 | 58 | 176 | 0.0 | 0.0 | 0.00 | 0.17 | 0.16 | 93 | 1012.8 |
| 20260902205006 | 58 | 203 | 0.0 | 0.0 | 0.00 | 0.17 | 0.16 | 93 | 1012.8 |
| 20260902204006 | 58 | 197 | 0.0 | 1.0 | 0.00 | 0.17 | 0.16 | 93 | 1012.7 |
| 20260902203008 | 58 | 198 | 0.0 | 0.0 | 0.00 | 0.17 | 0.16 | 93 | 1012.9 |
| 20260902202006 | 58 | 215 | 0.0 | 3.0 | 0.00 | 0.17 | 0.16 | 93 | 1013.0 |
| 20260902201005 | 58 | 211 | 0.0 | 2.0 | 0.00 | 0.17 | 0.16 | 93 | 1013.0 |
| 20260902200009 | 59 | 230 | 0.0 | 3.0 | 0.00 | 0.17 | 0.16 | 93 | 1013.0 |
| 20260902195006 | 59 | 237 | 0.0 | 3.0 | 0.00 | 0.17 | 0.16 | 92 | 1013.0 |
| 20260902194005 | 59 | 216 | 0.0 | 3.0 | 0.00 | 0.17 | 0.16 | 92 | 1013.0 |
| 20260902193010 | 59 | 202 | 0.0 | 5.0 | 0.00 | 0.17 | 0.16 | 92 | 1013.0 |
| 20260902192007 | 59 | 216 | 0.0 | 3.0 | 0.00 | 0.17 | 0.16 | 92 | 1013.0 |
| 20260902191006 | 59 | 221 | 0.0 | 5.0 | 0.00 | 0.17 | 0.16 | 92 | 1013.0 |
| 20260902190020 | 59 | 231 | 0.0 | 6.0 | 0.00 | 0.17 | 0.16 | 92 | 1012.9 |
| 20260902185006 | 59 | 204 | 0.0 | 5.0 | 0.00 | 0.17 | 0.16 | 92 | 1012.7 |
| 20260902184006 | 59 | 230 | 0.0 | 3.0 | 0.00 | 0.17 | 0.16 | 92 | 1012.8 |
| 20260902183008 | 59 | 231 | 0.0 | 2.0 | 0.00 | 0.17 | 0.16 | 92 | 1012.7 |
| 20260902182005 | 60 | 219 | 1.0 | 6.0 | 0.00 | 0.17 | 0.16 | 92 | 1012.5 |
| 20260902181006 | 60 | 186 | 0.0 | 9.0 | 0.00 | 0.17 | 0.16 | 92 | 1012.5 |
| 20260902180008 | 60 | 198 | 0.0 | 3.0 | 0.00 | 0.17 | 0.16 | 92 | 1012.6 |
| 20260902175006 | 60 | 218 | 0.0 | 6.0 | 0.00 | 0.17 | 0.16 | 92 | 1012.5 |
| 20260902174006 | 60 | 190 | 0.0 | 3.0 | 0.00 | 0.17 | 0.16 | 92 | 1012.5 |
| 20260902173008 | 61 | 194 | 0.0 | 5.0 | 0.00 | 0.17 | 0.16 | 92 | 1012.5 |
| 20260902172006 | 61 | 205 | 0.0 | 3.0 | 0.00 | 0.17 | 0.16 | 92 | 1012.6 |
| 20260902171005 | 61 | 195 | 0.0 | 6.0 | 0.00 | 0.17 | 0.16 | 92 | 1012.5 |
| 20260902170009 | 61 | 192 | 1.0 | 5.0 | 0.00 | 0.17 | 0.16 | 92 | 1012.5 |
| 20260902165006 | 61 | 209 | 0.0 | 5.0 | 0.00 | 0.17 | 0.16 | 92 | 1012.6 |
| 20260902164006 | 61 | 171 | 0.0 | 5.0 | 0.00 | 0.17 | 0.16 | 92 | 1012.7 |
| 20260902163008 | 61 | 188 | 0.0 | 7.0 | 0.01 | 0.17 | 0.16 | 92 | 1012.6 |
| 20260902162006 | 61 | 195 | 0.0 | 3.0 | 0.01 | 0.17 | 0.16 | 91 | 1012.9 |
| 20260902161006 | 61 | 198 | 0.0 | 5.0 | 0.01 | 0.17 | 0.16 | 91 | 1012.9 |
| 20260902160009 | 61 | 186 | 0.0 | 5.0 | 0.01 | 0.17 | 0.16 | 91 | 1013.0 |
| 20260902155006 | 61 | 195 | 0.0 | 5.0 | 0.01 | 0.17 | 0.16 | 91 | 1012.9 |
| 20260902154005 | 61 | 212 | 0.0 | 3.0 | 0.01 | 0.17 | 0.16 | 91 | 1013.0 |
| 20260902153008 | 61 | 195 | 0.0 | 3.0 | 0.00 | 0.17 | 0.15 | 91 | 1013.0 |
| 20260902152006 | 61 | 192 | 0.0 | 3.0 | 0.00 | 0.17 | 0.15 | 91 | 1013.0 |
| 20260902151005 | 61 | 168 | 0.0 | 10.0 | 0.01 | 0.17 | 0.15 | 91 | 1013.0 |
| 20260902150009 | 61 | 202 | 0.0 | 9.0 | 0.01 | 0.17 | 0.15 | 91 | 1013.0 |
| 20260902145006 | 61 | 202 | 0.0 | 5.0 | 0.02 | 0.17 | 0.15 | 91 | 1013.1 |
| 20260902144006 | 62 | 231 | 0.0 | 3.0 | 0.02 | 0.17 | 0.15 | 91 | 1013.1 |
| 20260902143009 | 61 | 214 | 0.0 | 5.0 | 0.04 | 0.17 | 0.15 | 91 | 1013.1 |
| 20260902142005 | 61 | 230 | 1.0 | 14.0 | 0.04 | 0.17 | 0.15 | 90 | 1013.0 |
| 20260902141006 | 61 | 227 | 2.0 | 12.0 | 0.04 | 0.16 | 0.14 | 90 | 1013.0 |
| 20260902140009 | 62 | 226 | 2.0 | 15.0 | 0.04 | 0.16 | 0.14 | 90 | 1013.0 |
| 20260902135006 | 63 | 219 | 1.0 | 9.0 | 0.03 | 0.15 | 0.13 | 90 | 1013.0 |
| 20260902134006 | 63 | 246 | 0.0 | 7.0 | 0.12 | 0.15 | 0.13 | 89 | 1013.0 |
| 20260902133008 | 63 | 227 | 0.0 | 1.0 | 0.11 | 0.13 | 0.11 | 89 | 1013.0 |
| 20260902132006 | 63 | 220 | 0.0 | 3.0 | 0.11 | 0.13 | 0.11 | 88 | 1013.0 |
| 20260902131005 | 63 | 226 | 0.0 | 10.0 | 0.10 | 0.12 | 0.10 | 87 | 1013.0 |
| 20260902130008 | 63 | 237 | 0.0 | 10.0 | 0.10 | 0.12 | 0.10 | 85 | 1013.2 |
| 20260902125006 | 64 | 233 | 1.0 | 20.0 | 0.10 | 0.12 | 0.10 | 80 | 1013.3 |
| 20260902124005 | 67 | 245 | 6.0 | 20.0 | 0.02 | 0.03 | 0.02 | 76 | 1013.2 |
| 20260902123008 | 68 | 229 | 0.0 | 10.0 | 0.00 | 0.02 | 0.00 | 76 | 1013.0 |
| 20260902122006 | 68 | 200 | 0.0 | 12.0 | 0.00 | 0.02 | 0.00 | 76 | 1013.0 |
| 20260902121006 | 69 | 227 | 2.0 | 17.0 | 0.00 | 0.02 | 0.00 | 75 | 1013.1 |
| 20260902120008 | 69 | 225 | 1.0 | 12.0 | 0.00 | 0.02 | 0.00 | 75 | 1013.0 |
| 20260902115006 | 69 | 222 | 3.0 | 16.0 | 0.00 | 0.02 | 0.00 | 75 | 1013.0 |
| 20260902114006 | 69 | 234 | 2.0 | 17.0 | 0.00 | 0.02 | 0.00 | 74 | 1013.1 |
| 20260902113008 | 69 | 226 | 2.0 | 10.0 | 0.00 | 0.02 | 0.00 | 75 | 1013.2 |
| 20260902112006 | 69 | 219 | 2.0 | 14.0 | 0.00 | 0.02 | 0.00 | 74 | 1013.2 |
| 20260902111005 | 69 | 231 | 1.0 | 12.0 | 0.00 | 0.02 | 0.00 | 74 | 1013.3 |
| 20260902110008 | 69 | 217 | 2.0 | 9.0 | 0.00 | 0.02 | 0.00 | 73 | 1013.4 |